Location: Chuathbaluk
(61.5726°N, 159.2454°W)
Time: 04:44:44
(UTC+00:00)

Explorer 7 - Pass Details

Date: 06 December 2021
Orbit: 483 x 674 km, 50.3° (Epoch: 25 January)

Event Time Altitude Azimuth Distance (km) Brightness Sun altitude
Exits shadow 16:39:32 - 212° (SSW) 2,370 9.9 -18.4°
Reaches altitude 10° 16:41:27 10° 195° (SSW) 1,858 9.5 -18.2°
Maximum altitude 16:43:39 14° 163° (SSE) 1,586 9.5 -17.9°
Drops below altitude 10° 16:45:48 10° 131° (SE) 1,799 10.4 -17.7°
Sets 16:48:51 0° 106° (ESE) 2,650 12.1 -17.3°
